• In Belarus
  • List of Countries
  • For 7 days
  • Water Temperature
  • Satellite Maps
  • Weather Map
  • Weather Widgets
  • user-avatar
    Login

    Hourly Weather Encamp

    Today, 22 November, Wednesday

    Time Temperature Precipitation Wind Pressure Humidity
    00:00 +3°C° 0 mm 1 mps 623 mmHg 53%
    01:00 +3°C° 0 mm 1 mps 623 mmHg 52%
    02:00 +3°C° 0 mm 1 mps 623 mmHg 51%
    03:00 +3°C° 0 mm 1 mps 622 mmHg 50%
    04:00 +3°C° 0 mm 1 mps 622 mmHg 48%
    05:00 +3°C° 0 mm 1 mps 622 mmHg 46%
    06:00 +2°C° 0 mm 1 mps 622 mmHg 44%
    07:00 +4°C° 0 mm 1 mps 622 mmHg 42%
    08:00 +6°C° 0 mm 1 mps 623 mmHg 40%
    09:00 +8°C° 0 mm 1 mps 624 mmHg 38%
    10:00 +8°C° 0 mm 2 mps 624 mmHg 36%
    11:00 +9°C° 0 mm 2 mps 624 mmHg 34%
    12:00 +12°C° 0 mm 2 mps 624 mmHg 33%
    13:00 +10°C° 0 mm 2 mps 624 mmHg 35%
    14:00 +9°C° 0 mm 2 mps 623 mmHg 38%
    15:00 +9°C° 0 mm 2 mps 623 mmHg 41%
    16:00 +6°C° 0 mm 2 mps 622 mmHg 44%
    17:00 +4°C° 0 mm 2 mps 621 mmHg 48%
    18:00 +3°C° 0 mm 1 mps 620 mmHg 52%
    19:00 +3°C° 0 mm 1 mps 620 mmHg 48%
    20:00 +2°C° 0 mm 1 mps 620 mmHg 44%
    21:00 +1°C° 0 mm 2 mps 620 mmHg 41%
    22:00 +1°C° 0 mm 2 mps 620 mmHg 40%
    23:00 +1°C° 0 mm 2 mps 620 mmHg 40%

    Tomorrow, 23 November, Thursday

    Time Temperature Precipitation Wind Pressure Humidity
    00:00 +1°C° 0 mm 2 mps 620 mmHg 40%
    01:00 +2°C° 0 mm 1 mps 620 mmHg 39%
    02:00 +2°C° 0 mm 1 mps 620 mmHg 38%
    03:00 +2°C° 0 mm 1 mps 620 mmHg 37%
    04:00 +2°C° 0 mm 1 mps 621 mmHg 37%
    05:00 +3°C° 0 mm 1 mps 621 mmHg 37%
    06:00 +3°C° 0 mm 1 mps 621 mmHg 37%
    07:00 +5°C° 0 mm 1 mps 622 mmHg 37%
    08:00 +6°C° 0 mm 1 mps 623 mmHg 38%
    09:00 +8°C° 0 mm 1 mps 624 mmHg 38%
    10:00 +9°C° 0 mm 1 mps 625 mmHg 37%
    11:00 +10°C° 0 mm 1 mps 625 mmHg 36%
    12:00 +12°C° 0 mm 2 mps 626 mmHg 35%
    13:00 +10°C° 0 mm 2 mps 625 mmHg 39%
    14:00 +10°C° 0 mm 2 mps 625 mmHg 43%
    15:00 +9°C° 0 mm 2 mps 625 mmHg 47%
    16:00 +7°C° 0 mm 2 mps 624 mmHg 53%
    17:00 +6°C° 0 mm 1 mps 624 mmHg 59%
    18:00 +4°C° 0 mm 1 mps 623 mmHg 65%
    19:00 +4°C° 0 mm 1 mps 623 mmHg 65%
    20:00 +4°C° 0 mm 1 mps 624 mmHg 64%
    21:00 +4°C° 0 mm 1 mps 624 mmHg 63%
    22:00 +3°C° 0 mm 2 mps 624 mmHg 63%
    23:00 +3°C° 0 mm 2 mps 624 mmHg 62%

    Day after tomorrow, 24 November, Friday

    Time Temperature Precipitation Wind Pressure Humidity
    00:00 +3°C° 0 mm 2 mps 624 mmHg 62%
    01:00 +3°C° 0 mm 2 mps 624 mmHg 62%
    02:00 +3°C° 0 mm 2 mps 624 mmHg 62%
    03:00 +4°C° 0 mm 2 mps 624 mmHg 62%
    04:00 +3°C° 0 mm 2 mps 623 mmHg 66%
    05:00 +3°C° 0 mm 2 mps 623 mmHg 70%
    06:00 +3°C° 0 mm 1 mps 623 mmHg 74%
    07:00 +5°C° 0 mm 1 mps 624 mmHg 71%
    08:00 +6°C° 0 mm 1 mps 624 mmHg 68%
    09:00 +6°C° 0 mm 2 mps 625 mmHg 65%
    10:00 +8°C° 0 mm 2 mps 625 mmHg 61%
    11:00 +9°C° 0 mm 2 mps 626 mmHg 58%
    12:00 +10°C° 0 mm 3 mps 626 mmHg 55%
    13:00 +10°C° 0 mm 3 mps 625 mmHg 57%
    14:00 +9°C° 0 mm 3 mps 625 mmHg 59%
    15:00 +9°C° 0 mm 3 mps 625 mmHg 61%
    16:00 +7°C° 0 mm 2 mps 624 mmHg 66%
    17:00 +5°C° 0 mm 2 mps 623 mmHg 71%
    18:00 +4°C° 0 mm 2 mps 623 mmHg 76%
    19:00 +4°C° 0 mm 2 mps 623 mmHg 76%
    20:00 +4°C° 0 mm 2 mps 623 mmHg 76%
    21:00 +3°C° 0 mm 2 mps 623 mmHg 76%
    22:00 +3°C° 0 mm 2 mps 623 mmHg 78%
    23:00 +3°C° 0 mm 2 mps 623 mmHg 80%

    25 November, Saturday

    Time Temperature Precipitation Wind Pressure Humidity
    00:00 +3°C° 0 mm 2 mps 623 mmHg 82%
    01:00 +3°C° 0 mm 2 mps 623 mmHg 82%
    02:00 +3°C° 0 mm 2 mps 622 mmHg 83%
    03:00 +3°C° 0 mm 2 mps 622 mmHg 83%
    04:00 +4°C° 0 mm 1 mps 622 mmHg 83%
    05:00 +3°C° 0 mm 1 mps 622 mmHg 84%
    06:00 +3°C° 0 mm 1 mps 622 mmHg 84%
    07:00 +4°C° 0.1 mm 1 mps 623 mmHg 82%
    08:00 +4°C° 0.1 mm 2 mps 624 mmHg 80%
    09:00 +5°C° 0.1 mm 2 mps 625 mmHg 78%
    10:00 +5°C° 0.1 mm 2 mps 625 mmHg 77%
    11:00 +6°C° 0.1 mm 2 mps 625 mmHg 75%
    12:00 +6°C° 0.1 mm 2 mps 626 mmHg 74%
    13:00 +6°C° 0.1 mm 2 mps 626 mmHg 76%
    14:00 +5°C° 0.1 mm 2 mps 626 mmHg 77%
    15:00 +5°C° 0.1 mm 2 mps 626 mmHg 79%
    16:00 +4°C° 0 mm 2 mps 626 mmHg 82%
    17:00 +3°C° 0 mm 2 mps 626 mmHg 86%
    18:00 +2°C° 0 mm 2 mps 626 mmHg 89%
    19:00 +2°C° 0.1 mm 2 mps 626 mmHg 90%
    20:00 +2°C° 0.1 mm 2 mps 626 mmHg 90%
    21:00 +1°C° 0.1 mm 2 mps 627 mmHg 90%
    22:00 +1°C° 0 mm 2 mps 627 mmHg 91%
    23:00 +1°C° 0 mm 2 mps 627 mmHg 92%

    26 November, Sunday

    Time Temperature Precipitation Wind Pressure Humidity
    00:00 +1°C° 0 mm 2 mps 627 mmHg 93%
    01:00 -1°C° 0 mm 2 mps 627 mmHg 93%
    02:00 -1°C° 0 mm 2 mps 626 mmHg 93%
    03:00 -2°C° 0 mm 2 mps 626 mmHg 93%
    04:00 -2°C° 0 mm 2 mps 626 mmHg 91%
    05:00 -2°C° 0 mm 2 mps 627 mmHg 90%
    06:00 -3°C° 0 mm 2 mps 627 mmHg 88%
    07:00 -2°C° 0 mm 2 mps 627 mmHg 83%
    08:00 -2°C° 0 mm 3 mps 628 mmHg 77%
    09:00 -2°C° 0 mm 3 mps 628 mmHg 72%
    10:00 -1°C° 0 mm 3 mps 629 mmHg 63%
    11:00 +1°C° 0 mm 3 mps 629 mmHg 54%
    12:00 +2°C° 0 mm 3 mps 629 mmHg 46%
    13:00 +1°C° 0 mm 3 mps 629 mmHg 46%
    14:00 +1°C° 0 mm 3 mps 629 mmHg 47%
    15:00 +1°C° 0 mm 3 mps 629 mmHg 48%
    16:00 -1°C° 0 mm 2 mps 628 mmHg 56%
    17:00 -3°C° 0 mm 2 mps 628 mmHg 64%
    18:00 -5°C° 0 mm 2 mps 628 mmHg 72%
    19:00 -5°C° 0 mm 2 mps 628 mmHg 72%
    20:00 -5°C° 0 mm 2 mps 628 mmHg 72%
    21:00 -5°C° 0 mm 2 mps 628 mmHg 72%
    22:00 -5°C° 0 mm 2 mps 628 mmHg 70%
    23:00 -6°C° 0 mm 2 mps 628 mmHg 68%

    27 November, Monday

    Time Temperature Precipitation Wind Pressure Humidity
    00:00 -6°C° 0 mm 2 mps 628 mmHg 66%
    01:00 -6°C° 0 mm 2 mps 628 mmHg 62%
    02:00 -4°C° 0 mm 1 mps 628 mmHg 59%
    03:00 -4°C° 0 mm 1 mps 627 mmHg 56%
    04:00 -4°C° 0 mm 1 mps 627 mmHg 52%
    05:00 -4°C° 0 mm 1 mps 627 mmHg 49%
    06:00 -4°C° 0 mm 1 mps 627 mmHg 46%
    07:00 -2°C° 0 mm 1 mps 628 mmHg 41%
    08:00 -1°C° 0 mm 0 mps 629 mmHg 37%
    09:00 +1°C° 0 mm 0 mps 630 mmHg 32%
    10:00 +3°C° 0 mm 1 mps 629 mmHg 32%
    11:00 +4°C° 0 mm 1 mps 629 mmHg 32%
    12:00 +6°C° 0 mm 1 mps 629 mmHg 32%
    13:00 +4°C° 0 mm 2 mps 629 mmHg 36%
    14:00 +4°C° 0 mm 2 mps 628 mmHg 40%
    15:00 +3°C° 0 mm 2 mps 627 mmHg 44%
    16:00 +2°C° 0 mm 1 mps 626 mmHg 52%
    17:00 0°C° 0 mm 1 mps 625 mmHg 59%
    18:00 -2°C° 0 mm 1 mps 625 mmHg 67%
    19:00 -2°C° 0 mm 1 mps 624 mmHg 65%
    20:00 -2°C° 0 mm 1 mps 624 mmHg 64%
    21:00 -2°C° 0 mm 1 mps 624 mmHg 62%
    22:00 -2°C° 0 mm 1 mps 624 mmHg 60%
    23:00 -1°C° 0 mm 1 mps 624 mmHg 57%
    Show more